DW1814 Weather Reports


Display with metric or nautical units.
time (UTC)temp
F
wind
direction
speed
MPH
gust
MPH
rain 1hr
in
rain 24hr
in
rain mn
in
humidity
%
barometer
mb
20260905211720 79 343 2.0 3.0 0.00 0.00 0.00 77 1014.2
20260905211215 80 353 3.0 4.0 0.00 0.00 0.00 75 1014.1
20260905210712 80 349 4.0 5.0 0.00 0.00 0.00 75 1013.9
20260905210211 79 356 2.0 4.0 0.00 0.00 0.00 77 1014.0
20260905205711 79 357 2.0 2.0 0.00 0.00 0.00 78 1013.9
20260905205210 80 19 2.0 3.0 0.00 0.00 0.00 77 1014.0
20260905204710 80 12 2.0 3.0 0.00 0.00 0.00 76 1014.2
20260905204206 79 3 3.0 4.0 0.00 0.00 0.00 79 1014.4
20260905203700 79 341 3.0 6.0 0.00 0.00 0.00 77 1014.2
20260905203156 80 334 3.0 5.0 0.00 0.00 0.00 76 1014.3
20260905202651 79 34 2.0 3.0 0.00 0.00 0.00 78 1014.2
20260905202146 79 347 3.0 4.0 0.00 0.00 0.00 78 1014.2
20260905201642 80 345 3.0 6.0 0.00 0.00 0.00 78 1014.2
20260905201141 80 339 1.0 5.0 0.00 0.00 0.00 77 1014.2
20260905200637 80 325 2.0 4.0 0.00 0.00 0.00 79 1014.1
20260905200132 79 29 4.0 5.0 0.00 0.00 0.00 79 1014.2
20260905195625 79 21 3.0 4.0 0.00 0.00 0.00 80 1014.3
20260905195121 78 358 4.0 4.0 0.00 0.00 0.00 80 1014.4
20260905194621 79 332 4.0 6.0 0.00 0.00 0.00 80 1014.6
20260905194120 79 337 4.0 7.0 0.00 0.00 0.00 79 1014.4
20260905193615 79 336 0.0 4.0 0.00 0.00 0.00 80 1014.6
20260905193110 79 11 2.0 4.0 0.00 0.00 0.00 81 1014.7
20260905192606 78 103 0.0 4.0 0.00 0.00 0.00 83 1014.6
20260905192102 77 337 0.0 5.0 0.00 0.00 0.00 84 1014.7
20260905191600 77 67 2.0 6.0 0.00 0.00 0.00 84 1014.5
20260905191059 76 298 4.0 5.0 0.00 0.00 0.00 85 1014.8
20260905190557 76 341 2.0 4.0 0.00 0.00 0.00 86 1014.9
20260905190057 76 358 0.0 2.0 0.00 0.00 0.00 87 1014.8
20260905185556 76 329 2.0 4.0 0.00 0.00 0.00 87 1015.1
20260905185055 76 355 4.0 5.0 0.00 0.00 0.00 87 1014.9
20260905184550 76 346 1.0 4.0 0.00 0.00 0.00 86 1014.9
20260905184049 76 351 2.0 5.0 0.00 0.00 0.00 86 1014.9
20260905183549 76 347 2.0 4.0 0.00 0.00 0.00 85 1015.1
20260905183044 76 329 3.0 3.0 0.00 0.00 0.00 87 1014.8
20260905182538 76 356 2.0 4.0 0.00 0.00 0.00 86 1015.0
20260905182033 76 335 2.0 3.0 0.00 0.00 0.00 86 1015.0
20260905181527 76 26 2.0 2.0 0.00 0.00 0.00 87 1015.1
20260905181027 76 317 2.0 3.0 0.00 0.00 0.00 86 1015.0
20260905180521 76 355 4.0 4.0 0.00 0.00 0.00 87 1015.0
20260905180017 76 343 2.0 4.0 0.00 0.00 0.00 87 1014.9
20260905175516 76 7 4.0 5.0 0.00 0.00 0.00 87 1014.6
20260905175012 75 27 2.0 3.0 0.00 0.00 0.00 88 1014.9
20260905174507 75 283 1.0 4.0 0.00 0.00 0.00 88 1014.9
20260905174003 75 315 3.0 4.0 0.00 0.00 0.00 88 1014.8
20260905173459 75 18 2.0 3.0 0.00 0.00 0.00 88 1014.8
20260905172954 75 326 3.0 5.0 0.00 0.00 0.00 88 1014.9
20260905172452 75 322 3.0 5.0 0.00 0.00 0.00 88 1014.8
20260905171948 75 332 2.0 5.0 0.00 0.00 0.00 89 1014.8
20260905171444 75 354 2.0 4.0 0.00 0.00 0.00 89 1014.7
20260905170940 75 10 6.0 6.0 0.00 0.00 0.00 89 1014.8
20260905170436 75 295 4.0 5.0 0.00 0.00 0.00 89 1015.1
20260905165936 75 338 4.0 4.0 0.00 0.00 0.00 89 1015.1
20260905165431 75 335 4.0 5.0 0.00 0.00 0.00 88 1015.1
20260905164926 76 5 3.0 5.0 0.00 0.00 0.00 88 1014.9
20260905164426 76 326 2.0 4.0 0.00 0.00 0.00 88 1015.2
20260905163921 76 15 2.0 3.0 0.00 0.00 0.00 89 1015.0
20260905163417 76 348 2.0 7.0 0.00 0.00 0.00 88 1015.0
20260905162913 76 330 2.0 5.0 0.00 0.00 0.00 88 1014.8
20260905162408 76 345 3.0 4.0 0.00 0.00 0.00 89 1015.0
20260905161903 76 355 3.0 4.0 0.00 0.00 0.00 88 1015.0
20260905161401 76 336 3.0 4.0 0.00 0.00 0.00 88 1015.1
20260905160900 76 347 2.0 3.0 0.00 0.00 0.00 88 1015.1
20260905160354 76 336 3.0 3.0 0.00 0.00 0.00 89 1015.0
20260905155849 76 5 2.0 4.0 0.00 0.00 0.00 89 1014.8
20260905155348 76 312 3.0 5.0 0.00 0.00 0.00 89 1014.9
20260905154847 76 335 2.0 4.0 0.00 0.00 0.00 89 1014.5
20260905154343 76 316 4.0 8.0 0.00 0.00 0.00 88 1014.8
20260905153838 77 343 1.0 5.0 0.00 0.00 0.00 87 1014.7
20260905153335 77 315 1.0 3.0 0.00 0.00 0.00 88 1014.5
20260905152834 77 328 2.0 4.0 0.00 0.00 0.00 89 1014.5
20260905152334 77 326 3.0 5.0 0.00 0.00 0.00 89 1014.3
20260905151829 77 4 3.0 4.0 0.00 0.00 0.00 89 1014.4
20260905151325 77 332 2.0 4.0 0.00 0.00 0.00 89 1014.2
20260905150824 77 346 2.0 5.0 0.00 0.00 0.00 90 1014.4
20260905150319 77 324 2.0 5.0 0.00 0.00 0.00 89 1014.3
20260905145817 77 344 3.0 8.0 0.00 0.00 0.00 89 1014.2
20260905145316 76 19 2.0 5.0 0.00 0.00 0.00 92 1014.4
20260905144815 75 0 2.0 3.0 0.00 0.00 0.00 95 1014.3
20260905144311 74 5 2.0 4.0 0.00 0.00 0.00 96 1014.4
20260905143809 74 359 2.0 4.0 0.00 0.00 0.00 96 1014.4
20260905143304 74 8 2.0 4.0 0.00 0.00 0.00 97 1014.1
20260905142803 73 7 3.0 4.0 0.00 0.00 0.00 98 1014.1
20260905142257 73 340 2.0 3.0 0.00 0.00 0.00 98 1014.3
20260905141753 73 337 2.0 4.0 0.00 0.00 0.00 99 1014.2
20260905141249 73 352 3.0 5.0 0.00 0.00 0.00 99 1014.3
20260905140745 73 326 3.0 6.0 0.00 0.00 0.00 99 1014.1
20260905140244 73 326 2.0 3.0 0.00 0.00 0.00 99 1014.1
20260905135743 73 324 3.0 6.0 0.00 0.00 0.00 99 1014.1
20260905135240 73 322 3.0 4.0 0.00 0.00 0.00 99 1013.9
20260905134739 73 12 2.0 3.0 0.00 0.00 0.00 99 1014.3
20260905134239 72 6 2.0 3.0 0.00 0.00 0.00 99 1014.0
20260905133733 73 343 3.0 4.0 0.00 0.00 0.00 99 1014.0
20260905133228 72 345 2.0 2.0 0.00 0.00 0.00 99 1013.9
20260905132727 72 339 2.0 2.0 0.00 0.00 0.00 99 1014.0
20260905132223 72 22 2.0 3.0 0.00 0.00 0.00 99 1014.1
20260905131718 72 336 2.0 3.0 0.00 0.00 0.00 99 1014.5
20260905131214 72 329 2.0 3.0 0.00 0.00 0.00 99 1014.6
20260905130708 72 320 2.0 2.0 0.00 0.00 0.00 99 1014.1
20260905130207 71 7 1.0 3.0 0.00 0.00 0.00 99 1013.8
20260905125702 71 13 2.0 2.0 0.00 0.00 0.00 99 1014.0
20260905125157 71 347 2.0 3.0 0.00 0.00 0.00 99 1013.9
20260905124654 71 341 2.0 3.0 0.00 0.00 0.00 99 1014.0
20260905124149 71 351 2.0 5.0 0.00 0.00 0.00 99 1013.8
20260905123644 71 353 1.0 3.0 0.00 0.00 0.00 99 1013.6
20260905123142 71 39 3.0 4.0 0.00 0.00 0.00 99 1013.5
20260905122641 71 322 2.0 3.0 0.00 0.00 0.00 99 1013.5
20260905122136 71 344 2.0 3.0 0.00 0.00 0.00 99 1013.4
20260905121631 71 339 2.0 2.0 0.00 0.00 0.00 99 1013.2
20260905121126 71 8 3.0 6.0 0.00 0.00 0.00 99 1013.2
20260905120625 71 348 5.0 5.0 0.00 0.00 0.00 99 1013.2
20260905120120 71 332 2.0 3.0 0.00 0.00 0.00 99 1013.0
20260905115619 71 353 0.0 2.0 0.00 0.00 0.00 99 1013.0
20260905115114 71 1 3.0 3.0 0.00 0.00 0.00 99 1013.2
20260905114614 71 6 3.0 3.0 0.00 0.00 0.00 99 1012.7
20260905114113 71 28 2.0 3.0 0.00 0.00 0.00 99 1012.8
20260905113608 71 95 1.0 5.0 0.00 0.00 0.00 99 1012.7
20260905113103 71 320 2.0 3.0 0.00 0.00 0.00 99 1012.8
20260905112558 71 109 2.0 2.0 0.00 0.00 0.00 99 1012.6
20260905112054 71 299 2.0 2.0 0.00 0.00 0.00 99 1012.3
20260905111549 71 208 1.0 2.0 0.00 0.00 0.00 99 1012.5
20260905111048 71 336 2.0 3.0 0.00 0.00 0.00 99 1012.5
20260905110547 71 178 0.0 2.0 0.00 0.00 0.00 99 1012.4
20260905110043 71 17 1.0 1.0 0.00 0.00 0.00 99 1012.2
20260905105542 71 333 0.0 0.0 0.00 0.00 0.00 99 1012.4
20260905105041 71 321 0.0 1.0 0.00 0.00 0.00 99 1012.3
20260905104538 72 304 0.0 0.0 0.00 0.00 0.00 99 1012.4
20260905104037 72 325 0.0 1.0 0.00 0.00 0.00 99 1012.5
20260905103532 72 317 1.0 1.0 0.00 0.00 0.00 99 1012.0
20260905103029 72 330 2.0 2.0 0.00 0.00 0.00 99 1012.3
20260905102524 72 330 1.0 2.0 0.00 0.00 0.00 99 1012.3
20260905102020 72 333 0.0 1.0 0.00 0.00 0.00 99 1012.0
20260905101519 72 32 0.0 0.0 0.00 0.00 0.00 99 1012.2
20260905101017 72 321 0.0 0.0 0.00 0.00 0.00 99 1012.3
20260905100514 72 322 0.0 1.0 0.00 0.00 0.00 99 1012.4
20260905100013 72 331 1.0 2.0 0.00 0.00 0.00 99 1012.2
20260905095508 72 343 2.0 2.0 0.00 0.00 0.00 99 1012.2
20260905095003 72 348 1.0 2.0 0.00 0.00 0.00 99 1012.4
20260905094458 72 345 2.0 3.0 0.00 0.00 0.00 99 1012.0
20260905093957 72 333 2.0 2.0 0.00 0.00 0.00 99 1012.0
20260905093452 72 299 0.0 2.0 0.02 0.00 0.00 99 1012.0
20260905092948 72 309 0.0 2.0 0.02 0.00 0.00 99 1011.8
20260905092443 72 16 0.0 1.0 0.00 0.00 0.00 99 1012.2
20260905091939 72 352 0.0 0.0 0.00 0.00 0.00 99 1011.7
20260905091438 72 334 0.0 1.0 0.00 0.00 0.00 99 1012.0
20260905090938 72 14 1.0 2.0 0.00 0.00 0.00 99 1011.9
20260905090433 72 309 0.0 1.0 0.00 0.00 0.00 99 1011.7
20260905085932 72 342 0.0 2.0 0.00 0.00 0.00 99 1011.6
20260905085432 72 337 0.0 1.0 0.00 0.00 0.00 99 1011.8
20260905084928 72 330 0.0 1.0 0.00 0.00 0.00 99 1011.9
20260905084427 72 328 0.0 1.0 0.00 0.00 0.00 99 1011.5
20260905083922 72 328 0.0 1.0 0.00 0.00 0.00 99 1011.9
20260905083418 73 306 0.0 0.0 0.00 0.00 0.00 99 1011.7
20260905082913 73 313 0.0 0.0 0.00 0.00 0.00 99 1011.9
20260905082409 73 269 0.0 0.0 0.00 0.00 0.00 99 1011.9
20260905081910 73 242 0.0 1.0 0.00 0.00 0.00 99 1012.0
20260905081405 73 322 0.0 0.0 0.00 0.00 0.00 99 1011.7
20260905080903 73 326 2.0 2.0 0.00 0.00 0.00 99 1012.0
20260905080358 73 346 1.0 2.0 0.00 0.00 0.00 99 1011.7
20260905075857 73 1 1.0 1.0 0.00 0.00 0.00 99 1011.8
20260905075357 73 327 0.0 2.0 0.00 0.00 0.00 99 1011.7
20260905074856 73 327 2.0 2.0 0.00 0.00 0.00 99 1011.9
20260905074352 73 330 0.0 2.0 0.00 0.00 0.00 99 1011.9
20260905073847 73 335 0.0 2.0 0.00 0.00 0.00 99 1012.2
20260905073343 73 322 2.0 2.0 0.00 0.00 0.00 99 1011.8
20260905072837 73 342 2.0 2.0 0.00 0.00 0.00 99 1011.8
20260905072332 73 246 0.0 0.0 0.00 0.00 0.00 99 1011.7
20260905071829 73 327 2.0 2.0 0.00 0.00 0.00 99 1011.9
20260905071320 73 312 0.0 0.0 0.00 0.00 0.00 99 1012.0
20260905070819 73 322 0.0 0.0 0.00 0.00 0.00 99 1012.2
20260905070316 73 334 2.0 2.0 0.00 0.00 0.00 99 1012.0
20260905065814 73 325 0.0 2.0 0.00 0.00 0.00 99 1012.2
20260905065313 73 338 1.0 2.0 0.00 0.00 0.00 99 1012.0
20260905064808 73 339 2.0 2.0 0.00 0.00 0.00 99 1012.2
20260905064304 73 346 2.0 2.0 0.00 0.00 0.00 99 1011.8
20260905063803 73 337 1.0 1.0 0.00 0.00 0.00 99 1011.9
20260905063259 73 320 0.0 1.0 0.00 0.00 0.00 99 1012.3
20260905062755 73 333 0.0 1.0 0.00 0.00 0.00 99 1012.4
20260905062254 73 339 0.0 1.0 0.00 0.00 0.00 99 1012.3
20260905061749 73 336 0.0 1.0 0.00 0.00 0.00 99 1012.3
20260905061244 73 337 1.0 2.0 0.00 0.00 0.00 99 1012.5
20260905060744 73 328 1.0 2.0 0.00 0.00 0.00 99 1012.4
20260905060241 73 337 1.0 2.0 0.00 0.00 0.00 99 1012.4
20260905055739 73 313 1.0 1.0 0.00 0.00 0.00 99 1012.4
20260905055235 73 335 0.0 0.0 0.00 0.00 0.00 99 1012.4
20260905054729 73 333 0.0 0.0 0.00 0.00 0.00 99 1012.6
20260905054226 73 343 0.0 0.0 0.00 0.00 0.00 99 1012.5
20260905053725 73 332 0.0 1.0 0.00 0.00 0.00 98 1012.5
20260905053221 73 324 0.0 1.0 0.00 0.00 0.00 98 1012.6
20260905052720 73 326 0.0 1.0 0.00 0.00 0.00 98 1012.5
20260905052215 73 325 0.0 2.0 0.00 0.00 0.00 98 1012.8
20260905051715 73 349 0.0 2.0 0.00 0.00 0.00 98 1012.7
20260905051212 73 295 0.0 2.0 0.00 0.00 0.00 98 1012.4
20260905050708 73 321 0.0 2.0 0.00 0.00 0.00 98 1012.5
20260905050205 73 336 0.0 1.0 0.00 0.00 0.00 98 1012.6
20260905045704 73 310 0.0 1.0 0.00 0.28 0.28 98 1012.3
20260905045159 73 317 0.0 1.0 0.00 0.28 0.28 98 1012.4
20260905044654 73 329 0.0 2.0 0.00 0.28 0.28 98 1012.3
20260905044149 73 322 0.0 0.0 0.00 0.28 0.28 98 1012.2
20260905043648 73 327 0.0 2.0 0.00 0.28 0.28 98 1012.5
20260905043143 73 309 0.0 0.0 0.00 0.28 0.28 98 1012.5
20260905042642 73 352 0.0 2.0 0.00 0.28 0.28 98 1012.5
20260905042137 73 343 0.0 1.0 0.00 0.28 0.28 98 1012.8
20260905041633 73 0 0.0 0.0 0.00 0.28 0.28 98 1012.5
20260905041128 73 4 0.0 1.0 0.00 0.28 0.28 98 1012.5
20260905040628 73 293 0.0 2.0 0.00 0.28 0.28 98 1012.5
20260905040127 73 317 1.0 2.0 0.00 0.28 0.28 97 1012.5
20260905035622 73 343 2.0 2.0 0.00 0.28 0.28 97 1012.3
20260905035119 73 330 1.0 2.0 0.00 0.28 0.28 97 1012.4
20260905034615 73 343 1.0 2.0 0.00 0.28 0.28 97 1012.3
20260905034114 73 336 0.0 1.0 0.02 0.28 0.28 97 1012.2
20260905033613 73 2 2.0 2.0 0.07 0.28 0.28 97 1012.5
20260905033109 73 342 2.0 2.0 0.12 0.27 0.27 97 1012.7
20260905032609 73 356 1.0 2.0 0.17 0.26 0.26 96 1012.6
20260905032109 73 342 0.0 1.0 0.19 0.25 0.25 96 1012.2
20260905031605 73 224 0.0 0.0 0.21 0.23 0.23 96 1012.4
20260905031105 73 309 0.0 0.0 0.28 0.22 0.22 95 1012.5
20260905030600 73 8 1.0 2.0 0.31 0.19 0.19 95 1012.5
20260905030055 73 77 0.0 2.0 0.38 0.16 0.16 94 1012.5
20260905025550 74 286 2.0 4.0 0.47 0.13 0.13 93 1012.8
20260905025046 75 345 0.0 2.0 0.50 0.08 0.08 91 1012.9
20260905024542 78 278 6.0 14.0 0.14 0.02 0.02 83 1014.3
20260905024037 80 293 4.0 4.0 0.00 0.00 0.00 84 1013.5
20260905023532 81 356 1.0 2.0 0.00 0.00 0.00 84 1013.0
20260905023027 81 0 1.0 2.0 0.00 0.00 0.00 83 1012.7
20260905022526 81 35 2.0 3.0 0.00 0.00 0.00 84 1012.8
20260905022021 81 82 1.0 2.0 0.00 0.00 0.00 86 1012.9
20260905021521 81 129 0.0 2.0 0.00 0.00 0.00 87 1012.9
20260905021016 81 33 1.0 2.0 0.00 0.00 0.00 88 1012.9
20260905020516 81 13 0.0 0.0 0.00 0.00 0.00 87 1012.7
20260905020012 81 66 2.0 2.0 0.00 0.00 0.00 87 1012.4
20260905015509 81 40 1.0 2.0 0.00 0.00 0.00 87 1012.7
20260905015009 81 32 0.0 2.0 0.00 0.00 0.00 87 1012.5
20260905014504 81 8 0.0 1.0 0.00 0.00 0.00 87 1012.4
20260905013959 81 29 0.0 1.0 0.00 0.00 0.00 87 1012.4
20260905013455 81 44 0.0 2.0 0.00 0.00 0.00 86 1012.6
20260905012951 81 18 0.0 2.0 0.00 0.00 0.00 86 1012.5
20260905012445 81 21 1.0 2.0 0.00 0.00 0.00 86 1012.3
20260905011942 81 30 1.0 2.0 0.00 0.00 0.00 86 1012.0
20260905011438 81 26 0.0 1.0 0.00 0.00 0.00 86 1012.0
20260905010933 81 44 0.0 1.0 0.00 0.00 0.00 85 1011.9
20260905010428 82 20 1.0 2.0 0.00 0.00 0.00 84 1011.7
20260905005924 82 29 0.0 2.0 0.00 0.00 0.00 83 1011.5
20260905005420 82 349 0.0 1.0 0.00 0.00 0.00 81 1011.4
20260905004915 83 358 0.0 0.0 0.00 0.00 0.00 81 1011.1
20260905004415 83 352 0.0 0.0 0.00 0.00 0.00 81 1011.1
20260905003910 83 352 0.0 0.0 0.00 0.00 0.00 81 1011.0
20260905003407 83 352 0.0 0.0 0.00 0.00 0.00 81 1011.2
20260905002902 83 352 0.0 0.0 0.00 0.00 0.00 81 1011.5
20260905002401 83 315 0.0 0.0 0.00 0.00 0.00 80 1011.5
20260905001856 83 312 0.0 0.0 0.00 0.00 0.00 80 1011.5
20260905001356 83 38 0.0 1.0 0.00 0.00 0.00 79 1011.5
20260905000851 84 309 0.0 1.0 0.00 0.00 0.00 79 1011.4
20260905000347 84 322 0.0 0.0 0.00 0.00 0.00 78 1011.3
20260904235837 84 269 0.0 4.0 0.00 0.00 0.00 78 1011.3
20260904235332 84 341 0.0 0.0 0.00 0.00 0.00 77 1011.2
20260904234826 85 341 0.0 0.0 0.00 0.00 0.00 76 1011.3
20260904234321 85 321 0.0 0.0 0.00 0.00 0.00 76 1011.3
20260904233817 85 322 0.0 0.0 0.00 0.00 0.00 75 1011.2
20260904233313 86 354 0.0 1.0 0.00 0.00 0.00 74 1011.0
20260904232809 86 305 1.0 1.0 0.00 0.00 0.00 73 1010.9
20260904232307 87 302 0.0 1.0 0.00 0.00 0.00 72 1011.0
20260904231801 87 228 0.0 0.0 0.00 0.00 0.00 72 1011.3
20260904231301 87 230 0.0 0.0 0.00 0.00 0.00 73 1011.1
20260904230756 87 192 0.0 2.0 0.00 0.00 0.00 72 1011.2
20260904230249 87 304 0.0 1.0 0.00 0.00 0.00 71 1011.4
20260904225750 88 266 0.0 0.0 0.00 0.00 0.00 71 1011.3
20260904225244 88 309 0.0 1.0 0.00 0.00 0.00 68 1011.5
20260904224743 88 297 0.0 0.0 0.00 0.00 0.00 67 1011.2
20260904224238 88 304 0.0 2.0 0.00 0.00 0.00 67 1011.4
20260904223737 88 351 0.0 4.0 0.00 0.00 0.00 68 1011.5
20260904223232 88 230 0.0 1.0 0.00 0.00 0.00 69 1011.5
20260904222728 89 322 0.0 2.0 0.00 0.00 0.00 66 1011.4
20260904222224 89 218 0.0 2.0 0.00 0.00 0.00 66 1011.1
20260904221723 89 269 1.0 6.0 0.00 0.00 0.00 65 1011.6
20260904221219 89 290 0.0 2.0 0.00 0.00 0.00 64 1011.4
20260904220718 89 216 1.0 2.0 0.00 0.00 0.00 64 1011.4
20260904220213 89 326 0.0 1.0 0.00 0.00 0.00 63 1011.3
20260904215713 89 253 0.0 2.0 0.00 0.00 0.00 63 1011.5
20260904215210 90 289 1.0 2.0 0.00 0.00 0.00 62 1011.4
20260904214710 90 289 0.0 1.0 0.00 0.00 0.00 62 1011.4
20260904214206 90 292 2.0 4.0 0.00 0.00 0.00 63 1011.4
20260904213703 90 282 0.0 2.0 0.00 0.00 0.00 67 1011.4
20260904213200 90 309 0.0 2.0 0.00 0.00 0.00 65 1011.3
20260904212655 90 310 0.0 2.0 0.00 0.00 0.00 63 1011.2
20260904212150 90 231 1.0 2.0 0.00 0.00 0.00 63 1011.3